Regional Weather Roundup
Issued by NWS

Home | Current Version | Previous Version | Graphics & Text | Print | Product List | Glossary On
Versions: 1 2 3 4 5 6 7 8 9 10 11 12 13 14 15 16 17 18 19 20 21 22 23 24 25 26 27 28 29 30 31 32 33 34 35 36 37 38 39 40 41 42 43 44 45 46 47 48 49 50
000
ASUS45 KCYS 261810
RWRWY

WYOMING REGIONAL WEATHER ROUNDUP
NATIONAL WEATHER SERVICE CHEYENNE WY
1200 PM MDT TUE AUG 26 2014

NOTE:  "FAIR" INDICATES FEW OR NO CLOUDS BELOW 12,000 FEET
WITH NO SIGNIFICANT WEATHER AND/OR OBSTRUCTIONS TO VISIBILITY.

WYZ001-261900-
YELLOWSTONE NATIONAL PARK

CITY           SKY/WX    TMP DP  RH WIND       PRES   REMARKS
LK YELLOWSTONE   N/A     57  44  62 VRB3      30.37S
6HR MIN TEMP:  37; 6HR MAX TEMP:  57;

W YELLOWSTONE  NOT AVBL

$$
WYZ002>013-054>058-071-098>099-261900-
NORTHERN WYOMING

CITY           SKY/WX    TMP DP  RH WIND       PRES   REMARKS
JACKSON        MOSUNNY   57  48  72 CALM      30.29
CODY           SUNNY     66  48  52 CALM      30.20S
GREYBULL       SUNNY     69  47  45 CALM      30.16F
6HR MIN TEMP:  48; 6HR MAX TEMP:  69;

WORLAND        SUNNY     68  51  54 VRB5      30.16F
6HR MIN TEMP:  48; 6HR MAX TEMP:  68;

SHERIDAN       MOSUNNY   71  47  42 NW9       30.16F
6HR MIN TEMP:  46; 6HR MAX TEMP:  72;

BUFFALO        MOSUNNY   70  46  42 N9        30.20S
6HR MIN TEMP:  46; 6HR MAX TEMP:  70;

GILLETTE       SUNNY     71  51  49 VRB7      30.16S
6HR MIN TEMP:  48; 6HR MAX TEMP:  71;

HULETT         FAIR      68  54  60 MISG      30.18
NEWCASTLE      FAIR      70  50  49 MISG      30.17

$$
WYZ014>020-022>026-101>103-261900-
CENTRAL WYOMING

CITY           SKY/WX    TMP DP  RH WIND       PRES   REMARKS
BIG PINEY      SUNNY     61  46  57 SW9       30.33S
6HR MIN TEMP:  46; 6HR MAX TEMP:  61; 6HR PCP: TRACE;

PINEDALE       PTCLDY    61  43  51 CALM      30.33S
DUBOIS         MOCLDY    64  36  34 N16G22    30.26F
LANDER         SUNNY     67  49  52 VRB5      30.21R
6HR MIN TEMP:  46; 6HR MAX TEMP:  68; 6HR PCP:  0.01;

RIVERTON       SUNNY     65  49  56 NE8       30.22S
6HR MIN TEMP:  48; 6HR MAX TEMP:  65; 6HR PCP: TRACE;

CASPER         MOSUNNY   73  49  42 VRB5      30.19F
6HR MIN TEMP:  47; 6HR MAX TEMP:  74;

DOUGLAS        MOSUNNY   73  52  47 NW8       30.20S
6HR MIN TEMP:  54; 6HR MAX TEMP:  73;


$$
WYZ021-027>030-104>119-261900-
SOUTHERN WYOMING

CITY           SKY/WX    TMP DP  RH WIND       PRES   REMARKS
EVANSTON       MOSUNNY   63  47  55 CALM      30.31S
6HR MIN TEMP:  47; 6HR MAX TEMP:  64;

KEMMERER       PTCLDY    61  45  55 S6        30.34S
FORT BRIDGER   FAIR      64  49  58 SE10      30.35R
ROCK SPRINGS   MOSUNNY   64  44  48 W5        30.31S
6HR MIN TEMP:  48; 6HR MAX TEMP:  64;

DIXON          FAIR      64  49  59 CALM      30.33F
RAWLINS        SUNNY     67  49  52 SW16      30.30F
6HR MIN TEMP:  49; 6HR MAX TEMP:  67; 6HR PCP: TRACE;

SARATOGA       FAIR      64  48  55 MISG      30.33F
LARAMIE        MOSUNNY   67  45  45 NW3       30.32S
6HR MIN TEMP:  45; 6HR MAX TEMP:  68;

CHEYENNE       MOSUNNY   68  55  63 SW21G26   30.27S
6HR MIN TEMP:  53; 6HR MAX TEMP:  68;

TORRINGTON     SUNNY     79  59  50 SE7       30.14F
6HR MIN TEMP:  54; 6HR MAX TEMP:  79;

PINE BLUFFS    FAIR      75  52  43 S15G22    30.23S

$$



USA.gov is the U.S. government's official web portal to all federal, state and local government web resources and services.